| time (UTC) | temp F | wind direction | speed MPH | gust MPH | rain 1hr in | rain 24hr in | rain mn in | humidity % | barometer mb |
| 20260505121508 | 55 | 87 | 1.0 | 3.0 | 0.00 | 0.00 | 0.00 | 76 | 1000.5 |
| 20260505120106 | 56 | 129 | 2.0 | 3.0 | 0.00 | 0.00 | 0.00 | 76 | 1000.4 |
| 20260505114547 | 56 | 159 | 0.0 | 3.0 | 0.00 | 0.00 | 0.00 | 75 | 1000.3 |
| 20260505113032 | 56 | 202 | 0.0 | 3.0 | 0.00 | 0.00 | 0.00 | 75 | 1000.3 |
| 20260505111534 | 56 | 121 | 1.0 | 3.0 | 0.00 | 0.00 | 0.00 | 74 | 1000.2 |
| 20260505101549 | 57 | 93 | 1.0 | 3.0 | 0.00 | 0.00 | 0.00 | 69 | 999.6 |
| 20260505100047 | 58 | 123 | 1.0 | 4.0 | 0.00 | 0.00 | 0.00 | 68 | 999.5 |
| 20260505094545 | 58 | 143 | 0.0 | 4.0 | 0.00 | 0.00 | 0.00 | 68 | 999.3 |
| 20260505093048 | 59 | 135 | 2.0 | 3.0 | 0.00 | 0.00 | 0.00 | 68 | 999.3 |
| 20260505091553 | 58 | 129 | 0.0 | 2.0 | 0.00 | 0.00 | 0.00 | 70 | 999.3 |
| 20260505090042 | 58 | 106 | 3.0 | 5.0 | 0.00 | 0.00 | 0.00 | 71 | 999.3 |
| 20260505084546 | 59 | 123 | 3.0 | 5.0 | 0.00 | 0.00 | 0.00 | 71 | 999.2 |
| 20260505083027 | 60 | 166 | 2.0 | 4.0 | 0.00 | 0.00 | 0.00 | 68 | 999.1 |
| 20260505081526 | 60 | 195 | 1.0 | 3.0 | 0.00 | 0.00 | 0.00 | 68 | 999.0 |
| 20260505080024 | 60 | 151 | 1.0 | 3.0 | 0.00 | 0.00 | 0.00 | 66 | 999.0 |
| 20260505074522 | 61 | 126 | 1.0 | 3.0 | 0.00 | 0.00 | 0.00 | 64 | 999.0 |
| 20260505073021 | 61 | 188 | 0.0 | 2.0 | 0.00 | 0.00 | 0.00 | 62 | 998.8 |
| 20260505071522 | 62 | 134 | 1.0 | 1.0 | 0.00 | 0.00 | 0.00 | 59 | 998.8 |
| 20260505070020 | 62 | 134 | 0.0 | 2.0 | 0.00 | 0.00 | 0.00 | 56 | 998.6 |
| 20260505064531 | 63 | 126 | 0.0 | 2.0 | 0.00 | 0.00 | 0.00 | 54 | 998.5 |
| 20260505063008 | 63 | 120 | 1.0 | 7.0 | 0.00 | 0.00 | 0.00 | 54 | 998.4 |
| 20260505061508 | 62 | 124 | 1.0 | 4.0 | 0.00 | 0.00 | 0.00 | 58 | 998.2 |
| 20260505060007 | 63 | 124 | 2.0 | 5.0 | 0.00 | 0.00 | 0.00 | 54 | 998.0 |
| 20260505054516 | 61 | 115 | 1.0 | 4.0 | 0.00 | 0.00 | 0.00 | 60 | 998.0 |
| 20260505053006 | 61 | 113 | 1.0 | 4.0 | 0.00 | 0.00 | 0.00 | 59 | 997.9 |
| 20260505051508 | 61 | 132 | 2.0 | 4.0 | 0.00 | 0.00 | 0.00 | 62 | 997.9 |
| 20260505041545 | 65 | 259 | 0.0 | 4.0 | 0.00 | 0.00 | 0.00 | 53 | 997.6 |
| 20260505040034 | 66 | 114 | 0.0 | 3.0 | 0.00 | 0.00 | 0.00 | 51 | 997.5 |
| 20260505034538 | 68 | 115 | 2.0 | 4.0 | 0.00 | 0.00 | 0.00 | 47 | 997.2 |
| 20260505033033 | 69 | 150 | 0.0 | 3.0 | 0.00 | 0.00 | 0.00 | 46 | 997.2 |
| 20260505031532 | 71 | 180 | 1.0 | 3.0 | 0.00 | 0.00 | 0.00 | 43 | 997.0 |
| 20260505030044 | 73 | 115 | 0.0 | 2.0 | 0.00 | 0.00 | 0.00 | 40 | 997.0 |
| 20260505024530 | 76 | 109 | 0.0 | 2.0 | 0.00 | 0.00 | 0.00 | 35 | 997.0 |
| 20260505023039 | 77 | 41 | 1.0 | 2.0 | 0.00 | 0.00 | 0.00 | 32 | 997.0 |
| 20260505021531 | 77 | 15 | 2.0 | 3.0 | 0.00 | 0.00 | 0.00 | 31 | 997.0 |
| 20260505020011 | 77 | 353 | 2.0 | 5.0 | 0.00 | 0.00 | 0.00 | 35 | 997.1 |
| 20260505014518 | 78 | 319 | 4.0 | 6.0 | 0.00 | 0.00 | 0.00 | 29 | 997.2 |
| 20260505013057 | 79 | 330 | 3.0 | 7.0 | 0.00 | 0.00 | 0.00 | 30 | 997.2 |
| 20260505011601 | 79 | 338 | 4.0 | 8.0 | 0.00 | 0.00 | 0.00 | 33 | 997.5 |
| 20260505010110 | 79 | 11 | 3.0 | 9.0 | 0.00 | 0.00 | 0.00 | 33 | 997.4 |
| 20260505004615 | 79 | 347 | 4.0 | 9.0 | 0.00 | 0.00 | 0.00 | 30 | 997.6 |
| 20260505003058 | 80 | 340 | 5.0 | 11.0 | 0.00 | 0.00 | 0.00 | 29 | 997.6 |
| 20260505001552 | 80 | 310 | 6.0 | 13.0 | 0.00 | 0.00 | 0.00 | 28 | 997.7 |
| 20260504234551 | 80 | 328 | 7.0 | 12.0 | 0.00 | 0.00 | 0.00 | 29 | 997.7 |
| 20260504233032 | 80 | 328 | 6.0 | 10.0 | 0.00 | 0.00 | 0.00 | 27 | 997.8 |
| 20260504231535 | 80 | 335 | 7.0 | 10.0 | 0.00 | 0.00 | 0.00 | 26 | 997.9 |
| 20260504230019 | 80 | 320 | 8.0 | 14.0 | 0.00 | 0.00 | 0.00 | 24 | 998.0 |
| 20260504224517 | 80 | 326 | 7.0 | 13.0 | 0.00 | 0.00 | 0.00 | 27 | 998.0 |
| 20260504223015 | 79 | 316 | 6.0 | 12.0 | 0.00 | 0.00 | 0.00 | 28 | 998.3 |
| 20260504221513 | 80 | 312 | 6.0 | 10.0 | 0.00 | 0.00 | 0.00 | 30 | 998.3 |
| 20260504220011 | 80 | 310 | 4.0 | 10.0 | 0.00 | 0.00 | 0.00 | 30 | 998.5 |
| 20260504214509 | 80 | 302 | 7.0 | 11.0 | 0.00 | 0.00 | 0.00 | 26 | 998.8 |
| 20260504213016 | 79 | 284 | 4.0 | 11.0 | 0.00 | 0.00 | 0.00 | 31 | 998.8 |
| 20260504211506 | 79 | 257 | 2.0 | 18.0 | 0.00 | 0.00 | 0.00 | 30 | 999.0 |
| 20260504210051 | 79 | 277 | 4.0 | 11.0 | 0.00 | 0.00 | 0.00 | 30 | 999.0 |
| 20260504204548 | 79 | 244 | 4.0 | 9.0 | 0.00 | 0.00 | 0.00 | 32 | 999.1 |
| 20260504203045 | 79 | 215 | 7.0 | 11.0 | 0.00 | 0.00 | 0.00 | 34 | 999.3 |
| 20260504201544 | 78 | 258 | 4.0 | 8.0 | 0.00 | 0.00 | 0.00 | 36 | 999.4 |
| 20260504200040 | 78 | 201 | 5.0 | 8.0 | 0.00 | 0.00 | 0.00 | 37 | 999.5 |
| 20260504194542 | 77 | 164 | 3.0 | 6.0 | 0.00 | 0.00 | 0.00 | 40 | 999.6 |
| 20260504193041 | 76 | 248 | 2.0 | 7.0 | 0.00 | 0.00 | 0.00 | 42 | 999.7 |
| 20260504191559 | 75 | 198 | 3.0 | 8.0 | 0.00 | 0.00 | 0.00 | 40 | 999.8 |
| 20260504190021 | 74 | 268 | 1.0 | 6.0 | 0.00 | 0.00 | 0.00 | 41 | 999.9 |
| 20260504184532 | 74 | 225 | 4.0 | 7.0 | 0.00 | 0.00 | 0.00 | 43 | 999.9 |
| 20260504183014 | 73 | 155 | 3.0 | 6.0 | 0.00 | 0.00 | 0.00 | 42 | 1000.0 |
| 20260504181515 | 72 | 210 | 2.0 | 6.0 | 0.00 | 0.00 | 0.00 | 42 | 1000.1 |
| 20260504180009 | 71 | 151 | 2.0 | 7.0 | 0.00 | 0.00 | 0.00 | 41 | 1000.2 |
| 20260504174510 | 71 | 230 | 5.0 | 7.0 | 0.00 | 0.00 | 0.00 | 45 | 1000.2 |
| 20260504173013 | 71 | 281 | 3.0 | 7.0 | 0.00 | 0.00 | 0.00 | 44 | 1000.1 |
| 20260504171503 | 70 | 234 | 3.0 | 7.0 | 0.00 | 0.00 | 0.00 | 43 | 1000.1 |